sat.trackr.live / text

‹ back to catalog

STARLINK-31244

NORAD 58856 · 2024-019D

PAYLOAD ACTIVE UNKNOWN

§ Identity

Operator
Country
US
Launch date
2024-01-29
Launch site
AFETR
Launch vehicle
Mass (kg)
RCS (m²)

Purposes: comms

External: N2YO · Heavens-Above · Gunter

§ Orbital elements

Epoch: 2026-05-25T03:06:21.278016Z

Period
94.27 min
Inclination
43.0020°
Eccentricity
0.0001175
Mean motion
15.27576641 rev/d
Perigee alt
482.3 km
Apogee alt
483.9 km
Semi-major
6,861.2 km
B*
3.4172e-5
RAAN
177.1671°
Arg perigee
272.8603°
Mean anomaly
87.2114°
Rev number
13,077

§ Raw data

STARLINK-312441 58856U 24019D   26145.12941294  .00000678  00000+0  34172-4 0  99992 58856  43.0020 177.1671 0001175 272.8603  87.2114 15.27576641130770

JSON: /api/v1/satellites/58856 · /tle

For live sub-satellite position, see the globe view (requires WebGL).

§ Visibility from observer

Set your observer location to see the next 7 days of passes ≥ 10°. The values pass through the URL so the page stays shareable.

No JS? Fill the form by hand. The geolocation button needs JavaScript.